Date,TemperatureHighF,TemperatureAvgF,TemperatureLowF,DewpointHighF,DewpointAvgF,DewpointLowF,HumidityHigh,HumidityAvg,HumidityLow,PressureMaxIn,PressureMinIn,WindSpeedMaxMPH,WindSpeedAvgMPH,GustSpeedMaxMPH,PrecipitationSumIn
2012-1-1,58.5,33.5,20.3,19.4,12.1,5.0,68,45,19,30.42,30.27,5,0,8,0.00
2012-1-2,55.4,31.9,16.5,19.4,12.8,6.8,79,51,23,30.45,30.33,6,0,8,0.00
2012-1-3,61.7,36.1,21.0,21.2,11.4,5.0,62,39,16,30.36,30.24,9,1,11,0.00
2012-1-4,58.5,37.6,22.8,15.8,10.1,6.8,59,35,17,30.42,30.30,8,1,11,0.00
2012-1-5,61.9,35.1,18.0,15.8,9.3,5.0,62,40,14,30.39,30.09,5,0,7,0.00
2012-1-6,65.3,37.1,20.8,21.2,13.5,6.8,64,43,15,30.12,30.00,7,0,10,0.00
2012-1-7,50.4,35.8,23.4,19.4,13.6,5.0,72,43,27,30.06,29.91,9,3,12,0.00
2012-1-8,30.2,28.6,27.5,15.8,12.6,8.6,60,53,45,30.00,29.97,10,5,19,0.00
2012-1-9,38.1,28.3,24.1,12.2,10.3,6.8,61,49,31,30.18,30.15,3,0,4,0.00
2012-1-10,60.4,36.5,22.1,23.0,15.9,10.4,72,47,24,30.21,30.03,6,1,8,0.00
2012-1-11,56.8,33.1,21.6,19.4,9.0,-0.4,66,41,17,30.09,30.00,5,1,8,0.00
2012-1-12,42.6,30.6,23.4,3.2,-3.7,-9.4,29,23,18,30.12,30.03,7,2,14,0.00
2012-1-13,51.8,32.4,19.8,6.8,-2.6,-13.0,39,23,16,30.27,30.12,5,1,13,0.00
2012-1-14,57.0,32.4,14.2,10.4,2.8,-4.0,54,31,15,30.27,30.15,5,1,9,0.00
2012-1-15,46.6,36.4,28.0,24.8,11.8,1.4,85,38,27,30.15,30.00,8,3,10,0.00
2012-1-16,39.9,32.6,29.8,32.0,25.0,17.6,98,77,43,30.06,29.88,8,2,12,0.37
2012-1-17,31.3,28.9,27.0,26.6,22.7,21.2,91,82,69,30.06,23.77,5,0,6,0.00
2012-1-18,54.7,34.3,19.0,24.8,14.3,8.6,92,52,20,23.89,23.77,6,1,8,0.08
2012-1-19,63.5,38.7,23.0,24.8,15.0,8.6,71,42,19,23.80,23.65,6,1,8,0.00
2012-1-20,60.4,38.0,25.0,15.8,11.1,6.8,53,36,17,23.74,23.65,6,1,8,0.00
2012-1-21,41.4,33.7,25.9,32.0,17.3,10.4,95,53,35,23.71,23.39,11,4,17,0.00
2012-1-22,41.0,30.8,20.1,15.8,6.9,-4.0,67,39,20,23.71,23.54,10,2,15,0.17
2012-1-23,41.2,28.6,18.0,23.0,11.5,1.4,88,52,30,23.71,23.51,8,1,9,0.04
2012-1-24,43.7,28.9,14.2,23.0,13.2,-0.4,91,58,22,23.80,23.54,11,2,20,0.08
2012-1-25,59.9,40.3,27.3,23.0,11.0,1.4,57,31,19,23.86,23.77,10,4,22,0.00
2012-1-26,41.0,29.9,25.2,12.2,10.0,6.8,57,45,29,23.86,23.83,5,1,6,0.00
2012-2-1,32.2,29.5,25.9,14.0,10.6,8.6,51,46,44,30.00,29.97,5,3,7,0.00
2012-2-2,44.1,29.2,20.3,24.8,18.0,8.6,94,67,31,30.03,29.88,7,1,10,0.00
2012-2-3,42.1,24.7,12.0,30.2,-2.4,-99.9,93,68,39,30.42,23.30,5,1,9,0.13
2012-2-4,44.2,30.6,24.3,21.2,15.4,-99.9,84,58,31,30.42,30.30,8,1,11,0.00
2012-2-5,48.2,31.6,12.9,24.8,2.6,-99.9,91,53,29,30.36,30.27,6,1,8,0.00
2012-2-6,50.9,28.3,13.8,21.2,9.8,-99.9,88,56,24,30.33,30.24,7,1,11,0.00
2012-2-7,42.3,31.0,19.0,15.8,8.4,3.2,56,39,29,30.39,30.33,5,2,6,0.00
2012-2-8,51.6,36.9,26.6,21.2,14.6,8.6,66,42,28,30.47,30.33,4,1,7,0.00
2012-2-9,40.8,28.4,21.0,19.4,14.5,10.4,82,61,30,30.47,30.42,7,0,9,0.00
2012-2-10,61.3,38.5,22.6,23.0,14.2,10.4,73,42,17,30.47,23.42,9,1,13,0.00
2012-2-11,55.9,39.2,25.3,21.2,15.0,10.4,66,40,21,30.39,30.12,8,2,13,0.00
2012-2-12,41.7,34.7,29.5,30.2,22.4,14.0,94,65,39,30.15,30.09,7,2,10,0.00
2012-2-13,34.0,32.0,29.7,28.4,25.3,23.0,88,77,65,30.21,30.03,7,2,11,0.00
2012-2-14,38.8,29.7,23.9,26.6,17.3,8.6,94,65,33,30.18,29.97,8,2,11,0.00
2012-2-15,31.3,25.7,17.8,21.2,17.0,14.0,87,73,57,30.21,30.15,5,2,8,0.00
2012-2-16,46.0,30.2,11.1,21.2,-2.2,-99.9,92,56,32,30.33,30.21,9,2,19,0.00
2012-2-17,54.3,36.7,21.9,17.6,10.4,1.4,54,36,18,30.33,30.27,7,2,11,0.00
2012-2-18,55.6,33.1,15.8,17.6,10.1,3.2,62,42,18,30.36,30.21,6,2,10,0.00
2012-2-19,38.3,29.2,23.0,30.2,19.9,14.0,92,71,43,30.21,30.06,10,2,15,0.00
2012-2-20,50.5,27.1,7.9,17.6,-7.8,-99.9,84,53,21,30.36,30.18,7,1,8,0.00
2012-2-21,58.6,34.7,15.3,14.0,8.1,1.4,71,37,17,30.45,30.33,6,1,8,0.00
2012-2-22,60.1,38.3,22.1,24.8,17.1,8.6,75,46,24,30.42,30.24,10,1,15,0.00
2012-2-23,59.0,43.0,26.6,23.0,13.0,3.2,67,31,15,30.33,30.15,10,3,15,0.00
2012-2-24,54.0,35.0,25.0,10.4,3.6,-4.0,42,28,15,30.45,30.27,7,2,13,0.00
2012-2-25,57.6,40.2,24.4,19.4,9.9,-0.4,46,30,17,30.42,30.21,9,3,13,0.00
2012-2-26,28.6,27.1,26.6,1.4,1.4,1.4,33,33,33,30.24,30.21,3,0,4,0.00
2012-2-27,41.0,36.2,31.6,23.0,19.2,12.2,56,49,41,30.03,29.97,8,4,13,0.00
2012-2-28,31.6,26.3,21.9,24.8,15.5,10.4,96,68,46,30.36,29.97,9,3,15,0.00
2012-2-29,46.4,29.2,8.4,14.0,-10.0,-99.9,80,49,25,30.36,30.27,8,3,15,0.04
2012-3-1,46.6,33.7,23.2,17.6,12.5,8.6,61,43,28,30.27,30.09,11,4,13,0.00
2012-3-2,38.7,28.6,16.9,12.2,-2.2,-9.4,51,28,19,30.42,30.09,12,4,18,0.00
2012-3-3,55.8,33.1,17.2,12.2,2.0,-13.0,49,28,18,30.56,30.39,7,1,11,0.00
2012-3-4,62.1,36.7,16.7,19.4,10.6,5.0,73,40,16,30.56,30.45,6,1,10,0.00
2012-3-5,67.6,42.8,23.4,19.4,10.8,6.8,53,31,12,30.47,30.33,5,1,9,0.00
2012-3-6,57.7,43.0,28.4,17.6,11.3,5.0,47,29,17,30.33,29.85,13,4,17,0.00
2012-3-7,39.2,28.2,22.1,14.0,6.8,-0.4,60,41,29,30.24,29.85,10,4,14,0.00
2012-3-8,46.0,33.5,21.4,17.6,12.1,6.8,63,43,28,30.56,30.21,11,4,21,0.00
2012-3-9,51.8,36.5,26.1,19.4,14.1,6.8,60,42,24,30.56,30.36,7,2,13,0.00
2012-3-10,55.9,37.0,24.1,21.2,15.3,8.6,69,44,26,30.39,30.21,8,2,13,0.00
2012-3-11,56.1,39.9,26.1,21.2,13.8,8.6,55,36,23,30.30,30.21,8,3,13,0.00
2012-3-12,63.3,42.0,25.5,19.4,8.4,-0.4,46,27,14,30.36,30.27,7,2,10,0.00
2012-3-13,62.6,43.4,27.9,12.2,4.5,-4.0,31,21,14,30.36,30.27,7,3,12,0.00
2012-3-14,64.0,42.9,24.6,12.2,4.0,-7.6,32,21,13,30.45,30.30,8,2,11,0.00
2012-3-15,68.4,45.3,27.0,19.4,10.6,1.4,41,27,14,30.45,30.33,7,2,11,0.00
2012-3-16,62.6,40.3,27.9,19.4,13.0,8.6,47,34,16,30.39,30.27,7,3,11,0.00
2012-3-17,54.0,41.9,33.6,35.6,27.1,17.6,96,61,26,30.06,29.94,12,3,19,0.00
2012-3-18,34.9,26.4,20.5,33.8,21.9,15.8,98,86,68,29.97,29.80,9,1,20,0.00
2012-3-19,33.4,23.3,16.9,21.2,13.1,5.0,88,69,44,30.12,29.91,0,0,0,0.00
2012-3-20,47.3,27.8,6.8,17.6,2.5,-99.9,78,51,28,30.33,30.12,9,1,13,0.00
2012-3-21,61.3,36.8,16.2,24.8,18.2,10.4,85,53,25,30.36,30.27,5,1,10,0.00
2012-3-22,68.9,41.7,20.8,26.6,16.8,6.8,69,41,15,30.36,30.27,5,1,8,0.00
2012-3-23,62.6,44.4,28.8,26.6,21.7,15.8,71,45,24,30.39,30.33,8,3,11,0.00
2012-3-26,56.7,44.6,30.2,26.6,21.9,17.6,71,43,25,30.33,30.24,9,4,12,0.00
2012-3-27,65.3,44.0,25.5,21.2,16.3,12.2,70,39,15,30.36,30.30,7,2,10,0.00
2012-3-28,66.4,46.0,27.1,21.2,13.8,6.8,52,30,15,30.36,30.27,8,3,11,0.00
2012-3-29,66.6,47.0,28.2,23.0,17.9,12.2,58,34,17,30.36,30.27,8,2,11,0.00
2012-3-30,71.6,51.0,31.6,24.8,19.1,15.8,53,31,14,30.39,30.30,7,3,9,0.00
2012-3-31,68.4,52.8,35.4,28.4,22.2,19.4,53,31,18,30.36,30.18,8,3,14,0.00
2012-4-1,53.1,42.7,30.2,24.8,16.9,6.8,51,35,19,30.18,30.03,11,4,23,0.00
2012-4-2,51.8,36.5,26.6,14.0,8.2,1.4,60,33,19,30.21,30.06,11,4,17,0.00
2012-4-3,63.7,42.2,22.1,24.8,14.1,3.2,60,35,17,30.30,30.18,9,2,13,0.00
2012-4-4,64.8,46.6,26.1,21.2,15.2,10.4,54,30,15,30.33,30.21,8,3,14,0.00
2012-4-5,63.3,47.6,32.5,23.0,15.3,8.6,42,28,16,30.24,30.15,9,4,15,0.00
2012-4-6,60.4,47.4,28.0,11.7,5.5,-7.4,32,18,14,30.41,30.21,12,4,13,0.00
2012-4-7,65.5,48.9,17.1,13.4,5.6,-9.1,37,18,13,30.47,30.27,13,3,17,0.00
2012-4-8,72.1,49.7,28.4,20.2,10.5,2.5,34,22,11,30.47,30.39,9,1,9,0.00
2012-4-9,73.2,51.5,32.4,19.4,11.5,4.5,38,22,11,30.41,30.33,12,2,12,0.00
2012-4-10,70.5,51.3,31.1,20.0,12.3,4.3,36,22,13,30.36,30.21,12,2,13,0.00
2012-4-11,56.1,39.3,31.8,37.7,19.9,10.5,73,46,29,30.24,30.15,20,3,20,0.00
2012-4-12,54.0,38.5,34.3,26.8,19.9,2.5,72,51,16,30.27,30.15,13,4,13,0.00
2012-4-13,52.5,40.5,32.7,17.9,11.3,5.4,43,31,21,30.24,29.91,17,4,17,0.00
2012-4-14,39.4,27.8,24.1,28.2,22.7,9.5,94,82,29,30.12,29.85,17,2,17,0.00
2012-4-15,51.6,37.5,27.0,27.0,23.3,16.8,92,61,28,30.36,30.09,10,2,10,0.00
2012-4-16,66.0,43.6,24.6,26.7,20.4,14.6,82,45,19,30.44,30.33,10,1,10,0.00
2012-4-17,70.2,49.2,30.7,26.9,20.2,15.1,56,35,17,30.41,30.33,10,2,10,0.00
2012-4-18,68.2,51.7,31.1,25.1,18.9,12.8,66,31,15,30.39,30.30,15,3,15,0.00
2012-4-19,73.2,53.9,32.5,29.3,21.3,15.3,53,30,16,30.36,30.27,13,2,13,0.00
2012-4-20,77.0,54.5,42.6,28.7,20.6,14.8,40,27,13,30.44,30.36,13,3,13,0.00
2012-4-21,83.3,57.5,35.1,29.0,22.2,15.8,58,30,11,30.44,30.33,8,1,8,0.00
2012-4-22,84.2,60.7,37.4,30.9,22.8,16.8,51,27,11,30.44,30.33,10,1,10,0.00
2012-4-23,82.0,61.3,39.9,30.5,21.7,0.0,46,25,12,30.44,30.33,14,2,14,0.00
2012-4-24,77.0,57.2,36.9,28.5,19.0,8.4,61,26,10,30.41,30.30,10,2,10,0.00
2012-4-25,70.5,54.9,38.7,28.8,22.5,11.2,46,29,19,30.44,30.27,11,2,11,0.00
2012-4-26,53.2,41.5,33.6,41.8,29.1,17.5,98,64,33,30.30,30.21,14,2,14,0.00
2012-4-27,68.2,51.1,34.9,33.6,28.6,19.1,89,48,17,30.33,30.21,12,2,12,0.00
2012-4-28,70.7,52.1,37.6,31.1,23.7,17.0,69,37,17,30.27,30.15,12,2,12,0.00
2012-4-29,71.6,51.1,30.7,25.3,19.7,11.3,63,33,14,30.33,30.21,10,2,10,0.00
2012-4-30,72.9,54.7,34.5,27.2,18.7,15.2,49,27,14,30.36,30.24,9,3,13,0.00
2012-5-1,65.5,51.9,46.4,28.0,24.6,20.7,41,35,20,30.27,30.15,11,4,11,0.00
2012-5-2,65.3,54.0,45.0,28.3,24.6,18.8,48,33,24,30.30,30.18,12,3,12,0.00
2012-5-3,71.8,56.2,41.4,30.7,24.7,18.5,55,31,19,30.33,30.27,13,4,13,0.00
2012-5-4,72.1,57.7,42.1,26.5,20.3,12.8,42,25,15,30.36,30.30,10,4,10,0.00
2012-5-5,72.3,55.4,37.2,24.9,16.5,11.3,37,22,14,30.33,30.24,15,3,15,0.00
2012-5-6,66.4,48.9,29.8,21.2,14.3,9.2,44,27,15,30.33,30.27,10,2,10,0.00
2012-5-7,67.6,49.0,27.9,19.2,10.6,-0.4,44,23,12,30.27,30.15,12,3,12,0.00
2012-5-8,71.6,50.7,29.1,27.0,17.3,-0.7,43,28,12,30.36,30.21,13,2,13,0.00
2012-5-9,72.7,56.4,42.4,29.9,24.0,16.1,50,30,15,30.39,30.24,11,2,11,0.00
2012-5-10,77.7,59.5,35.8,27.9,20.4,12.9,53,25,13,30.30,30.15,15,3,15,0.00
2012-5-11,76.8,59.0,39.2,27.0,17.0,4.1,41,21,12,30.36,30.21,12,3,12,0.00
2012-5-12,77.9,57.8,37.9,30.5,18.4,5.9,32,22,13,30.44,30.24,34,1,34,0.00
2012-5-13,79.0,54.8,35.6,25.1,14.8,8.4,37,23,10,30.44,30.33,18,2,18,0.00
2012-5-14,79.7,59.5,36.9,23.7,15.3,4.1,34,19,10,30.47,30.36,13,1,13,0.00
2012-5-15,80.8,60.4,37.4,27.2,17.5,8.8,30,20,11,30.44,30.30,11,1,11,0.00
2012-5-16,79.3,60.7,40.3,27.9,17.9,4.6,43,21,10,30.39,30.27,13,2,13,0.00
2012-5-17,79.9,62.6,39.4,25.9,15.5,0.0,100,17,10,30.36,30.15,14,2,14,0.00
2012-5-18,71.2,59.4,40.6,27.0,17.3,4.1,29,20,13,30.24,30.09,18,3,18,0.00
2012-5-19,76.3,55.7,32.9,24.8,15.0,4.5,41,22,12,30.39,30.21,13,1,13,0.00
2012-5-20,83.7,60.7,35.4,24.5,16.4,7.6,38,19,10,30.44,30.33,13,1,13,0.00
2012-5-21,85.1,64.9,40.6,29.6,16.2,7.1,34,17,8,30.44,30.33,11,2,11,0.00
2012-5-22,83.1,65.8,44.2,26.5,16.2,7.1,28,15,9,30.39,30.21,15,4,15,0.00
2012-5-23,78.3,63.5,43.3,24.1,16.0,3.1,20,16,13,30.24,30.03,17,4,17,0.00
2012-5-24,75.4,61.7,46.0,33.3,28.5,15.3,50,29,19,30.15,30.00,13,4,13,0.00
2012-5-25,68.7,57.8,48.9,32.4,28.8,21.5,49,34,23,30.09,29.97,22,5,22,0.00
2012-5-26,59.0,48.2,35.4,32.0,17.1,4.7,63,31,14,30.27,30.00,20,5,20,0.00
2012-5-27,84.2,49.1,25.0,24.6,10.4,3.2,44,23,11,30.33,30.21,12,2,12,0.00
2012-5-28,75.7,54.2,28.0,21.3,11.8,3.5,40,20,10,30.39,30.30,12,1,12,0.00
2012-5-29,78.1,59.0,37.2,24.4,11.9,2.6,29,17,10,30.39,30.33,12,2,12,0.00
2012-5-30,81.9,62.0,39.7,22.9,12.3,3.3,24,15,9,30.39,30.27,13,1,13,0.00
2012-5-31,87.1,67.1,40.1,26.6,17.2,1.8,31,15,9,30.39,30.30,9,1,9,0.00
2012-6-1,89.2,63.9,48.6,31.5,18.4,10.9,27,18,9,30.36,30.24,13,1,13,0.00
2012-6-2,81.7,68.5,53.4,22.5,15.3,7.4,18,13,9,30.33,30.27,11,3,11,0.00
2012-6-3,84.2,65.9,43.3,25.7,15.1,4.1,28,15,9,30.39,30.30,8,2,12,0.00
2012-6-4,79.5,57.0,42.3,24.7,15.8,9.1,28,20,12,30.39,30.27,8,2,10,0.01
2012-6-5,75.4,67.0,50.4,32.8,25.8,11.8,32,21,16,30.30,30.21,13,4,13,0.00
2012-6-6,79.5,61.8,39.7,23.7,16.7,10.1,29,18,11,30.30,30.21,12,2,12,0.01
2012-6-7,81.3,64.7,37.8,27.2,17.9,8.4,36,18,11,30.36,30.27,10,2,10,0.00
2012-6-8,79.5,58.3,42.6,27.2,17.4,8.8,33,21,10,30.36,30.21,11,2,11,0.00
2012-6-9,79.0,65.4,52.7,24.4,17.9,10.4,22,16,12,30.27,30.15,12,4,13,0.01
2012-6-10,79.9,64.7,48.7,31.0,24.2,18.9,37,22,15,30.36,30.21,12,2,12,0.35
2012-6-11,82.4,64.3,41.2,28.5,20.5,15.0,36,21,12,30.44,30.33,12,2,12,0.00
2012-6-12,85.3,67.0,42.3,28.5,17.2,8.6,29,16,8,30.44,30.33,13,1,13,0.00
2012-6-13,84.4,67.0,45.5,26.5,16.1,8.6,25,15,8,30.36,30.21,8,2,9,0.00
2012-6-14,81.7,61.8,51.6,24.2,14.9,7.1,23,17,9,30.30,30.24,12,2,12,0.00
2012-6-15,81.0,63.5,43.0,30.0,16.2,5.7,28,17,9,30.33,30.24,10,2,10,0.00
2012-6-16,85.1,67.1,44.1,28.4,17.4,7.3,28,15,9,30.44,30.33,10,2,10,0.00
2012-6-17,87.4,70.2,48.4,28.5,20.5,9.7,27,16,11,30.44,30.33,11,2,11,0.00
2012-6-18,86.2,71.1,52.5,30.6,20.0,8.6,30,15,10,30.36,30.21,17,3,17,0.00
2012-6-19,87.6,71.1,53.1,26.4,18.0,7.5,18,13,9,30.27,30.18,11,3,11,0.00
2012-6-20,93.7,73.0,46.6,27.1,18.2,7.1,27,13,8,30.39,30.21,13,1,13,0.00
2012-6-21,89.1,71.0,34.2,34.2,17.9,7.7,100,14,8,30.41,30.33,11,2,11,0.00
2012-6-22,86.7,71.4,53.1,32.9,22.5,8.6,30,17,11,30.36,30.21,15,3,15,0.00
2012-6-23,87.8,70.4,48.7,28.5,20.4,10.6,24,16,10,30.36,30.24,17,2,17,0.00
2012-6-24,89.2,72.6,52.0,34.5,24.6,12.8,27,18,10,30.44,30.33,13,2,13,0.00
2012-6-25,86.5,72.4,58.6,43.7,36.3,26.0,51,28,19,30.44,30.33,13,3,13,0.00
2012-6-26,86.7,73.0,57.6,39.3,34.4,25.7,35,25,18,30.39,30.27,12,3,12,0.00
2012-6-27,88.5,69.8,52.7,40.5,36.0,32.4,46,30,18,30.44,30.33,15,2,15,0.00
2012-6-28,88.7,72.8,53.2,41.7,37.2,0.0,61,30,18,30.50,30.41,11,3,11,0.00
2012-6-29,89.6,74.4,54.1,40.4,32.4,25.6,47,23,13,30.50,30.36,12,3,12,0.00
2012-6-30,90.1,75.6,60.4,32.1,24.9,16.4,25,16,10,30.41,30.30,9,3,10,0.00
2012-7-1,89.6,72.1,61.9,29.8,20.4,15.2,22,14,10,30.39,30.27,13,1,13,0.00
2012-7-2,89.6,73.7,60.4,35.8,26.4,15.8,26,18,12,30.39,30.27,11,1,11,0.00
2012-7-3,84.4,70.8,58.5,43.3,33.8,25.1,37,26,20,30.39,30.30,10,2,10,0.00
2012-7-4,74.1,65.2,57.6,49.9,40.8,33.9,73,42,31,30.39,30.30,10,2,10,0.00
2012-7-5,81.5,66.6,55.9,51.3,40.5,30.5,81,44,20,30.41,30.33,12,2,12,0.00
2012-7-6,83.3,69.5,57.9,38.5,31.7,24.4,42,26,15,30.44,30.39,10,1,10,0.00
2012-7-7,87.8,70.6,53.1,36.9,31.5,22.8,40,25,13,30.44,30.39,9,1,9,0.00
2012-7-8,84.9,68.5,56.3,52.5,36.5,30.7,76,32,20,30.53,30.41,15,2,15,0.57
2012-7-9,73.8,73.8,73.8,36.8,36.8,36.8,26,26,26,30.50,23.48,10,2,10,0.23
2012-7-10,73.8,73.8,73.8,36.8,36.8,36.8,26,26,26,30.47,30.36,12,2,12,0.00
2012-7-11,73.8,73.8,73.8,36.8,36.8,36.8,26,26,26,30.50,23.48,11,1,11,0.00
2012-7-12,73.8,73.8,73.8,36.8,36.8,36.8,26,26,26,30.44,30.36,10,2,10,0.00
2012-7-13,73.8,73.8,73.8,36.8,36.8,36.8,26,26,26,30.47,30.39,9,2,9,0.00
2012-7-14,73.8,68.7,51.6,54.2,40.9,36.8,94,43,26,30.50,30.39,13,1,13,0.07
2012-7-15,79.7,62.1,48.9,55.5,48.6,42.6,98,66,31,30.44,30.33,10,2,10,0.22
2012-7-16,82.2,65.1,49.1,53.8,43.6,31.8,95,53,23,30.41,30.33,11,2,11,0.00
2012-7-17,84.4,66.8,50.9,47.3,37.0,27.3,71,37,20,30.44,30.33,13,2,13,0.22
2012-7-18,89.1,69.8,51.4,35.9,32.0,27.0,49,27,13,30.47,30.39,10,3,10,0.22
2012-7-19,90.3,70.8,57.7,41.0,35.7,30.9,45,29,18,30.47,30.39,8,1,8,0.00
2012-7-20,94.1,69.6,56.1,46.7,41.7,35.7,61,39,16,30.50,30.44,8,2,9,0.22
2012-7-21,86.9,68.8,56.3,49.7,43.8,0.0,100,43,21,30.53,30.41,23,2,23,0.03
2012-7-22,92.7,70.3,50.9,51.8,43.6,36.8,75,45,17,30.53,30.39,14,2,14,0.00
2012-7-23,84.0,68.0,61.0,56.6,46.1,41.6,76,47,26,30.50,30.39,8,1,8,0.07
2012-7-24,77.5,61.3,55.4,58.8,52.5,43.6,92,75,36,30.47,30.39,6,1,9,0.87
2012-7-25,82.9,67.0,53.1,58.0,46.2,40.0,93,53,24,30.47,30.36,11,2,11,0.00
2012-7-26,87.4,67.6,50.9,47.9,41.2,35.7,72,41,19,30.44,30.36,11,2,11,0.01
2012-7-27,84.9,67.8,55.0,55.3,46.1,41.6,88,49,25,30.50,30.39,9,1,9,0.34
2012-7-28,89.2,66.6,56.8,56.6,48.9,40.0,93,59,21,30.50,30.39,8,1,8,1.66
2012-7-29,86.4,64.9,56.1,57.8,53.5,44.4,94,72,28,30.53,30.39,17,1,17,0.23
2012-7-30,79.7,63.4,55.6,60.4,54.5,47.9,96,75,36,30.50,30.41,8,1,8,0.14
2012-7-31,85.1,63.1,53.1,56.4,50.5,38.8,92,69,28,30.53,30.44,13,2,13,0.47
2012-8-1,86.5,67.1,54.1,54.7,46.0,37.7,97,55,20,30.56,30.44,8,2,8,2.74
2012-8-2,86.7,67.9,53.1,50.7,44.2,37.5,81,48,21,30.50,30.39,10,2,10,0.00
2012-8-3,89.2,67.0,52.7,49.6,43.8,37.6,71,47,19,30.44,30.33,15,2,15,0.00
2012-8-4,88.2,68.4,53.6,54.4,42.3,35.0,66,42,19,30.50,30.36,13,2,13,0.11
2012-8-5,89.4,62.6,52.9,55.4,47.5,38.6,82,60,20,30.62,30.47,13,2,14,0.01
2012-8-6,91.9,69.0,53.8,52.0,44.8,35.2,85,47,18,30.62,30.50,13,2,13,0.00
2012-8-7,91.0,64.6,52.2,55.0,45.8,36.7,72,54,19,30.56,30.47,11,2,11,0.06
2012-8-8,94.6,70.6,53.2,53.2,42.5,34.9,71,41,17,30.53,30.44,10,2,10,2.89
2012-8-9,90.7,67.5,55.0,56.6,45.5,37.9,74,48,19,30.56,30.44,11,3,11,0.14
2012-8-10,98.4,75.0,54.1,45.8,38.2,29.1,60,30,12,30.50,30.36,11,2,11,0.00
2012-8-11,93.0,70.4,55.4,53.3,41.4,36.2,59,37,17,30.47,30.39,13,2,13,0.11
2012-8-12,89.8,68.9,53.1,47.0,39.7,34.5,63,37,19,30.47,30.39,10,2,10,3.14
2012-8-13,91.4,68.8,55.6,47.1,39.7,35.0,55,37,17,30.47,30.39,15,2,15,0.75
2012-8-14,90.5,71.1,54.9,46.9,39.8,33.0,69,36,15,30.44,30.33,10,2,10,0.75
2012-8-15,92.3,69.1,54.7,43.6,38.1,31.8,56,35,14,30.41,30.33,8,2,8,3.26
2012-8-16,90.9,63.1,54.0,54.1,45.2,34.7,86,56,21,30.50,30.39,10,2,10,4.61
2012-8-17,85.5,66.6,56.3,53.5,49.2,42.8,83,57,25,30.50,30.39,8,2,8,0.75
2012-8-18,90.9,64.9,55.6,55.0,50.9,40.9,87,65,20,30.44,30.36,8,2,8,0.75
2012-8-19,90.3,64.0,50.7,56.5,50.2,40.4,90,65,21,30.44,30.36,9,1,9,0.75
2012-8-20,86.2,67.6,57.0,56.4,49.9,42.0,80,56,26,30.47,30.39,9,2,9,4.68
2012-8-21,81.3,62.3,56.3,56.5,51.3,47.4,83,69,33,30.50,30.39,14,1,14,0.05
2012-8-22,82.2,61.6,51.8,57.9,52.3,44.4,92,74,31,30.47,30.39,7,1,7,0.32
2012-8-23,77.7,60.3,51.6,56.7,49.8,36.6,97,74,30,30.44,30.36,13,2,13,0.75
2012-8-24,77.0,60.6,50.2,56.3,50.0,43.7,97,72,38,30.44,30.36,10,1,10,0.00
2012-8-25,88.3,62.2,46.6,50.1,44.6,36.0,91,60,19,30.45,30.36,11,2,11,5.79
2012-8-26,84.6,63.1,48.2,51.6,45.4,40.6,87,56,25,30.51,30.39,7,2,13,0.01
2012-8-27,90.5,67.7,53.8,51.8,43.9,36.9,74,47,20,30.57,30.45,7,2,12,0.00
2012-8-28,55.6,54.3,53.2,43.5,42.6,41.7,68,65,61,30.54,30.51,4,1,6,0.00
2012-8-29,76.5,65.3,57.7,44.5,42.1,39.3,59,44,30,30.45,30.42,4,2,6,0.02
2012-8-30,86.7,67.9,53.6,46.0,39.9,34.1,62,39,20,30.45,30.36,7,2,13,0.00
2012-8-31,84.9,67.3,56.5,48.0,43.7,39.1,66,46,22,30.48,30.42,8,2,14,0.00
2012-9-1,76.5,62.8,52.7,54.1,49.2,46.6,81,62,40,30.54,30.45,6,2,9,0.00
2012-9-2,80.8,62.1,54.1,59.6,49.4,43.6,91,66,31,30.54,30.45,7,2,17,0.41
2012-9-3,85.5,62.5,51.4,55.6,48.5,37.5,92,66,21,30.57,30.45,8,2,14,0.03
2012-9-4,82.4,62.5,51.3,52.3,47.0,38.8,85,61,24,30.57,30.45,7,2,10,0.00
2012-9-5,90.0,65.0,47.1,47.1,42.6,35.5,78,49,18,30.51,30.42,6,1,10,0.00
2012-9-6,87.4,67.1,50.0,48.8,42.9,38.3,73,46,20,30.51,30.39,6,2,8,0.00
2012-9-7,79.0,64.1,53.2,54.2,48.6,34.1,81,60,28,30.54,30.45,6,1,9,0.00
2012-9-8,82.4,66.0,48.2,47.1,36.9,30.7,65,36,22,30.54,30.45,7,2,15,0.00
2012-9-9,83.7,62.0,43.7,46.2,38.8,29.9,67,46,21,30.57,30.45,5,1,9,0.00
2012-9-10,80.1,63.3,53.1,50.2,46.0,40.3,78,56,26,30.51,30.39,7,2,10,0.00
2012-9-11,61.9,56.3,51.8,53.4,49.9,44.0,94,80,55,30.45,30.39,4,1,8,0.15
2012-9-12,75.9,59.2,47.3,51.4,43.8,30.6,97,62,31,30.51,30.39,7,1,15,0.01
2012-9-13,76.3,63.7,53.2,41.4,34.4,26.6,46,34,25,30.62,30.47,15,3,17,6.41
2012-9-14,73.9,57.8,43.5,33.5,29.7,25.0,54,36,22,30.68,30.56,10,2,10,6.41
2012-9-15,83.8,58.7,40.3,35.5,26.8,18.5,58,34,14,30.62,30.50,11,2,11,1.33
2012-9-16,84.6,60.4,42.1,82.4,26.6,21.0,100,31,13,30.56,30.44,10,2,10,1.33
2012-9-17,81.3,59.1,39.6,34.5,26.6,22.1,56,32,14,30.48,30.39,8,2,10,0.00
2012-9-18,87.8,61.1,39.9,38.1,25.5,18.4,50,29,13,30.54,30.45,7,2,9,0.00
2012-9-19,87.3,62.5,43.5,34.5,25.5,20.0,42,27,13,30.57,30.45,6,2,9,0.00
2012-9-20,88.3,63.4,44.8,35.3,26.8,21.9,42,28,13,30.57,30.45,6,2,8,0.00
2012-9-21,87.8,61.7,44.6,36.5,25.6,16.2,43,28,13,30.51,30.42,6,1,8,0.00
2012-9-22,85.5,62.5,44.2,38.9,27.2,20.5,41,28,13,30.54,30.45,7,2,10,0.00
2012-9-23,82.8,60.8,45.9,38.9,30.4,25.3,47,34,16,30.57,30.45,6,1,10,0.00
2012-9-24,79.2,58.5,44.1,37.0,28.8,20.0,57,35,19,30.54,30.33,9,2,14,0.00
2012-9-25,75.6,58.2,45.5,31.5,25.7,18.8,45,30,16,30.39,30.27,8,2,13,0.00
2012-9-26,76.5,55.3,37.6,35.0,26.1,21.1,59,35,18,30.42,30.33,6,2,11,0.00
2012-9-27,79.0,56.3,37.4,35.6,27.9,23.1,62,37,20,30.48,30.39,5,1,9,0.00
2012-9-28,83.1,56.4,37.6,35.4,27.6,21.0,62,36,16,30.48,30.36,7,1,10,0.00
2012-9-29,79.0,57.3,42.4,37.2,27.5,20.0,49,34,20,30.51,30.42,5,1,9,0.00
2012-9-30,81.7,57.2,37.6,35.6,21.9,10.9,51,28,13,30.54,30.45,8,2,11,0.00
2012-10-1,82.8,63.1,44.4,30.6,22.9,14.7,34,22,14,30.54,30.45,7,2,13,0.00
2012-10-2,84.4,59.9,40.3,31.3,20.7,13.5,38,24,11,30.48,30.36,6,2,10,0.00
2012-10-3,82.8,60.7,40.6,30.6,20.8,13.5,36,23,13,30.51,30.39,9,2,14,0.00
2012-10-4,77.5,61.0,47.3,31.8,23.7,17.4,32,24,18,30.51,30.42,8,3,13,0.00
2012-10-5,77.0,56.5,37.0,32.1,21.9,16.6,45,28,15,30.48,30.36,6,2,9,0.00
2012-10-6,77.5,55.0,39.0,30.7,22.0,15.8,44,29,15,30.42,30.30,6,2,13,0.00
2012-10-7,78.1,51.9,34.3,30.4,18.9,10.0,50,30,15,30.42,30.33,6,1,8,0.00
2012-10-8,75.0,53.8,36.5,32.5,24.9,13.4,52,34,18,30.42,30.33,7,2,10,0.00
2012-10-9,76.5,56.0,39.4,37.1,28.5,22.4,71,37,20,30.45,30.33,6,2,9,0.00
2012-10-10,73.4,53.2,37.8,35.6,28.1,21.2,63,41,21,30.42,30.33,7,2,10,0.00
2012-10-11,70.9,49.2,35.4,43.2,33.2,23.7,89,58,24,30.36,30.27,11,2,20,0.36
2012-10-12,49.5,40.3,33.3,41.1,33.6,27.8,94,78,48,30.39,30.24,8,2,14,0.43
2012-10-13,70.2,45.4,29.5,35.2,29.3,25.5,93,60,23,30.48,30.36,10,1,15,0.00
2012-10-14,68.9,47.5,30.2,38.2,29.0,24.9,92,54,25,30.57,30.45,5,1,12,0.00
2012-10-15,79.2,51.6,32.5,35.4,27.5,20.3,79,46,15,30.51,30.36,6,1,9,0.00
2012-10-16,79.7,55.8,34.2,32.9,22.3,14.4,57,31,12,30.42,30.27,6,2,8,0.00
2012-10-17,81.0,56.7,37.8,34.0,21.2,5.5,48,27,13,30.42,30.27,6,1,9,0.00
2012-10-18,78.1,49.9,28.2,25.1,14.0,5.6,44,26,13,30.51,30.39,6,1,9,0.00
2012-10-19,83.5,52.8,32.2,29.8,17.6,10.1,44,28,11,30.45,30.33,5,2,8,0.00
2012-10-20,72.1,51.0,31.5,30.9,21.2,11.2,45,32,22,30.36,30.21,8,2,10,0.00
2012-10-21,67.1,53.1,44.6,36.5,29.4,22.1,66,42,26,30.30,30.21,8,3,14,0.00
2012-10-22,63.9,51.5,42.6,39.2,35.0,30.6,82,56,33,30.30,30.24,8,3,13,0.00
2012-10-23,63.5,49.9,39.4,38.9,32.8,26.3,89,56,29,30.30,30.21,7,3,13,0.00
2012-10-24,62.6,47.6,33.3,30.7,18.8,6.8,61,35,16,30.36,30.21,10,3,16,0.00
2012-10-25,60.3,39.4,22.8,18.0,9.1,0.0,42,30,17,30.42,30.33,9,2,13,0.00
2012-10-26,53.1,37.1,25.0,11.3,5.4,-6.2,42,27,18,30.48,30.39,8,2,12,0.00
2012-10-27,68.5,40.3,20.3,18.7,6.2,-3.4,41,26,15,30.42,30.33,5,1,11,0.00
2012-10-28,76.5,46.0,27.7,21.9,10.2,2.2,37,25,13,30.48,30.39,5,2,8,0.00
2012-10-29,74.7,47.9,29.8,22.5,10.7,0.1,35,24,13,30.51,30.45,6,2,8,0.00
2012-10-30,75.6,47.7,29.7,21.4,10.4,2.2,31,23,13,30.48,30.39,5,2,8,0.00
2012-10-31,75.2,47.5,28.6,25.0,11.3,2.0,35,24,13,30.51,30.39,6,1,9,0.00
2012-11-1,68.9,46.4,29.1,21.1,11.3,4.1,40,26,15,30.45,30.33,6,2,8,0.00
2012-11-2,66.6,47.2,34.0,26.8,16.8,8.7,42,30,20,30.39,30.33,8,2,12,0.00
2012-11-3,70.5,45.8,30.9,29.8,19.3,11.9,54,37,20,30.48,30.36,4,2,7,0.00
2012-11-4,69.4,45.5,28.8,25.0,15.1,6.1,53,32,16,30.57,30.45,6,2,10,0.00
2012-11-5,71.4,49.8,33.3,25.7,16.3,7.0,40,27,17,30.57,30.51,6,2,10,0.00
2012-11-6,73.6,46.3,24.8,28.8,15.7,6.9,47,31,16,30.57,30.45,5,1,8,0.00
2012-11-7,73.4,48.3,32.2,27.2,16.2,9.2,43,30,15,30.51,30.33,6,2,10,0.00
2012-11-8,62.6,45.6,31.1,39.1,22.9,9.4,91,45,23,30.36,30.21,8,3,13,0.04
2012-11-9,51.1,41.6,32.4,39.4,34.8,28.1,93,78,48,30.21,29.98,9,3,17,0.53
2012-11-10,36.7,26.6,19.4,27.6,12.1,5.1,85,56,29,30.21,29.98,7,3,13,0.00
2012-11-11,43.5,25.9,11.3,9.9,5.1,1.1,77,44,23,30.54,30.21,6,2,9,0.00
2012-11-12,24.3,22.6,17.6,2.6,-0.4,-2.0,50,36,33,30.54,30.51,5,2,7,0.00
2012-11-13,34.3,34.3,34.3,6.1,6.1,6.1,30,30,30,30.54,30.54,2,2,7,0.00
2012-11-14,63.0,39.0,0.0,21.2,9.6,1.4,53,31,16,30.54,30.39,5,2,8,0.08
2012-11-15,56.3,37.9,22.6,20.9,12.0,4.1,46,35,20,30.51,30.42,6,1,7,0.02
2012-11-16,62.8,44.7,33.3,25.4,17.3,9.6,57,35,18,30.45,30.39,6,2,11,0.00
2012-11-17,58.3,42.9,29.7,30.4,23.4,12.7,65,47,34,30.45,30.33,7,2,13,0.00
2012-11-18,57.0,40.0,27.0,32.9,25.5,20.9,92,59,31,30.45,30.33,6,2,8,0.00
2012-11-19,61.7,39.0,25.3,29.4,18.8,6.4,88,49,22,30.57,30.45,6,2,12,0.00
2012-11-20,66.2,40.3,25.0,26.2,15.8,8.2,55,39,18,30.57,30.39,5,1,8,0.00
2012-11-21,63.5,41.5,27.0,26.1,17.6,11.5,56,40,24,30.45,30.33,6,2,10,0.00
2012-11-22,65.7,40.5,25.3,26.5,16.1,8.7,58,40,20,30.54,30.42,5,1,7,0.00
2012-11-23,63.5,38.0,20.7,24.2,13.6,7.4,62,40,19,30.60,30.54,6,1,10,0.00
2012-11-24,68.5,41.5,24.4,26.1,13.8,6.2,49,34,17,30.57,30.39,5,2,8,0.00
2012-11-25,63.9,41.1,27.1,27.0,13.9,7.9,50,35,18,30.39,30.27,5,2,8,0.00
2012-11-26,63.9,38.6,23.4,23.2,12.6,7.2,59,37,16,30.48,30.33,5,1,8,0.00
2012-11-27,62.2,39.4,23.5,25.0,14.8,7.2,56,38,21,30.57,30.45,6,2,10,0.00
2012-11-28,61.0,42.0,27.0,26.6,18.9,10.4,60,42,25,30.54,30.39,7,2,10,0.00
2012-11-29,59.0,41.4,26.4,26.6,21.1,16.5,73,47,27,30.48,30.39,7,2,11,0.00
2012-11-30,59.9,42.9,31.1,35.6,27.8,20.8,91,60,25,30.45,30.36,6,2,8,0.00
2012-12-1,59.5,43.2,30.2,31.4,22.9,16.1,75,48,26,30.45,30.36,6,2,15,0.00
2012-12-2,57.6,41.4,27.0,32.1,25.0,16.2,86,55,28,30.39,30.33,7,2,13,0.00
2012-12-3,48.7,42.3,35.6,35.2,31.2,29.2,86,66,48,30.42,30.33,4,2,8,0.00
2012-12-4,60.3,45.9,0.0,29.4,23.1,14.0,76,42,25,30.63,30.39,6,2,8,0.00
2012-12-5,66.9,44.2,28.9,26.2,13.7,7.4,47,32,15,30.57,30.33,6,2,10,0.00
2012-12-6,58.1,39.7,27.3,28.0,19.0,9.6,69,45,29,30.36,30.21,6,1,10,0.00
2012-12-7,59.0,36.9,23.0,30.9,16.8,2.6,87,50,20,30.30,30.21,6,1,8,0.00
2012-12-8,54.5,35.3,22.1,18.5,9.9,0.8,62,38,18,30.27,30.18,7,2,9,0.00
2012-12-9,45.9,30.8,19.4,14.4,4.8,-4.8,43,33,26,30.39,30.18,11,3,17,0.00
2012-12-10,48.0,26.4,9.1,12.9,0.9,-12.8,45,33,22,30.39,30.27,7,2,11,0.00
2012-12-11,51.6,28.5,11.1,16.5,5.1,-3.5,57,38,24,30.36,30.24,5,1,7,0.00
2012-12-12,47.7,33.0,0.0,14.6,6.3,-0.5,44,33,24,30.30,30.21,7,3,10,0.00
2012-12-13,46.9,33.2,19.2,29.1,13.1,-0.6,85,45,30,30.24,30.01,9,2,17,0.04
2012-12-14,35.1,29.1,0.0,30.0,24.2,18.0,93,81,63,30.18,29.92,4,0,10,0.02
2012-12-15,33.6,25.6,11.1,26.5,20.4,7.2,89,81,66,30.18,30.07,3,0,7,0.00
2012-12-16,41.0,24.8,8.8,20.8,16.2,4.9,92,72,40,30.33,30.15,5,1,9,0.01
2012-12-17,36.3,30.4,25.0,27.3,24.4,19.9,91,78,64,30.33,30.21,6,3,11,0.01
2012-12-18,38.5,33.1,28.8,31.5,26.8,22.7,98,78,55,30.24,29.89,8,3,15,0.17
2012-12-19,34.5,21.2,4.5,27.8,4.4,-14.6,97,51,25,30.48,29.92,8,2,15,0.00
2012-12-20,37.4,13.6,-4.4,8.1,-6.1,-20.4,61,41,27,30.57,30.45,4,1,9,0.00
2012-12-21,46.9,22.2,0.0,22.2,1.9,-15.1,80,42,28,30.48,30.33,6,1,9,0.03
2012-12-22,53.4,33.4,22.1,23.8,13.8,2.8,70,46,27,30.42,30.33,6,2,8,0.22
2012-12-23,50.9,32.6,19.9,17.8,12.2,6.2,73,46,24,30.39,30.27,6,2,9,0.06
2012-12-24,38.1,29.2,22.3,26.2,14.8,4.9,81,55,42,30.30,30.07,10,4,20,0.02
2012-12-25,33.8,19.0,4.5,6.4,-0.1,-9.9,57,43,31,30.30,30.12,9,1,14,0.00
2012-12-26,34.7,24.4,14.2,20.1,7.5,-3.8,81,50,32,30.21,30.01,6,2,8,0.00
2012-12-27,35.6,22.2,11.7,18.7,12.2,5.1,84,66,38,30.18,30.01,8,2,14,0.00
2012-12-28,38.3,17.1,-0.2,12.6,0.4,-10.5,79,49,31,30.33,30.15,4,1,7,0.00
2012-12-29,36.5,19.7,1.4,13.5,2.6,-12.6,74,47,36,30.36,30.15,6,1,7,0.00
2012-12-30,37.4,25.5,14.2,19.6,11.6,3.2,81,57,36,30.21,30.01,7,1,10,0.01
2012-12-31,34.3,21.8,13.1,18.0,11.6,6.5,81,66,42,30.30,30.03,5,1,9,0.00
2013-1-1,37.9,16.6,-2.0,18.9,2.6,-7.4,85,57,32,30.36,30.27,5,2,11,0.00